This is the latest recevied weather packets stored in our database for station/object EA8BQU-10. If no packets are shown the sender has not sent any weather packets the latest 10 day(s).
| Time | Temp. | Humidity | Pressure | Rain* | Wind** | Luminosity | Snow |
|---|---|---|---|---|---|---|---|
| 1777645840 | 22.22° C | 95% | 1019.7 hPa | - | - | - | - |
| 1777644940 | 22.22° C | 97% | 1019.7 hPa | - | - | - | - |
| 1777644040 | 22.22° C | 94% | 1019.8 hPa | - | - | - | - |
| 1777643140 | 22.22° C | 92% | 1019.8 hPa | - | - | - | - |
| 1777642240 | 21.67° C | 93% | 1019.9 hPa | - | - | - | - |
| 1777641340 | 21.11° C | 95% | 1019.9 hPa | - | - | - | - |
| 1777640440 | 21.11° C | 97% | 1020.1 hPa | - | - | - | - |
| 1777638639 | 20.56° C | 99% | 1020 hPa | - | - | - | - |
| 1777636839 | 20.56° C | 99% | 1020.2 hPa | - | - | - | - |
| 1777635042 | 20.56° C | 100% | 1020.2 hPa | - | - | - | - |
| 1777634142 | 20.56° C | 100% | 1020.2 hPa | - | - | - | - |
| 1777633242 | 20.56° C | 99% | 1020.2 hPa | - | - | - | - |
| 1777632342 | 20.56° C | 100% | 1020.2 hPa | - | - | - | - |
| 1777631442 | 20° C | 100% | 1020.2 hPa | - | - | - | - |
| 1777630542 | 20.56° C | 100% | 1020.3 hPa | - | - | - | - |
| 1777629641 | 20.56° C | 100% | 1020.1 hPa | - | - | - | - |
| 1777627841 | 20° C | 99% | 1020.4 hPa | - | - | - | - |
| 1777626941 | 20° C | 100% | 1020.4 hPa | - | - | - | - |
| 1777626041 | 20° C | 100% | 1020.3 hPa | - | - | - | - |
| 1777625141 | 20° C | 100% | 1020.4 hPa | - | - | - | - |
| 1777624240 | 20° C | 100% | 1020.3 hPa | - | - | - | - |
| 1777623340 | 20° C | 100% | 1020.2 hPa | - | - | - | - |
| 1777622440 | 19.44° C | 100% | 1019.9 hPa | - | - | - | - |
| 1777621540 | 19.44° C | 100% | 1019.9 hPa | - | - | - | - |
| 1777620640 | 18.89° C | 100% | 1019.6 hPa | - | - | - | - |
* Rain since midnight (hover to see other rain measurements)
** Current wind speed in m/s (hover to see current wind gust speed)